TimeMDT,TemperatureF,Dew PointF,Humidity,Sea Level PressureIn,VisibilityMPH,Wind Direction,Wind SpeedMPH,Gust SpeedMPH,PrecipitationIn,Events,Conditions,WindDirDegrees,DateUTC
12:56 AM,45.0,37.9,76,29.79,10.0,SE,5.8,-,N/A,,Overcast,130,2013-04-05 06:56:00
1:56 AM,45.0,37.9,76,29.80,10.0,North,5.8,-,N/A,,Overcast,350,2013-04-05 07:56:00
2:56 AM,45.0,37.9,76,29.79,10.0,NW,5.8,-,0.00,Rain,Light Rain,310,2013-04-05 08:56:00
3:38 AM,42.8,39.2,87,29.96,7.0,East,4.6,-,0.03,Rain,Light Rain,80,2013-04-05 09:38:00
3:45 AM,42.8,39.2,87,29.96,3.0,East,4.6,-,0.05,Rain,Light Rain,80,2013-04-05 09:45:00
3:56 AM,41.9,39.9,93,29.80,2.0,Calm,Calm,-,0.08,Rain,Rain,0,2013-04-05 09:56:00
4:12 AM,42.8,39.2,87,29.96,3.0,SE,6.9,-,0.04,Rain,Light Rain,130,2013-04-05 10:12:00
4:20 AM,42.8,39.2,87,29.96,2.5,SSE,4.6,-,0.06,Rain,Rain,150,2013-04-05 10:20:00
4:29 AM,42.8,39.2,87,29.97,5.0,Calm,Calm,-,0.07,Rain,Light Rain,0,2013-04-05 10:29:00
4:56 AM,41.0,39.9,96,29.81,10.0,SSE,11.5,-,0.10,Rain,Light Rain,150,2013-04-05 10:56:00
5:56 AM,38.8,36.0,89,29.81,8.0,South,8.1,-,0.04,Rain,Light Rain,190,2013-04-05 11:56:00
6:16 AM,39.2,37.4,93,29.94,10.0,SSE,9.2,-,0.01,Rain,Light Rain,150,2013-04-05 12:16:00
6:56 AM,39.9,36.0,86,29.77,10.0,South,6.9,-,0.01,,Scattered Clouds,170,2013-04-05 12:56:00
7:56 AM,39.9,36.9,89,29.79,10.0,SSW,5.8,-,N/A,,Mostly Cloudy,210,2013-04-05 13:56:00
8:14 AM,39.2,37.4,93,29.92,10.0,SW,4.6,-,N/A,,Overcast,220,2013-04-05 14:14:00
8:45 AM,39.2,37.4,93,29.91,10.0,South,12.7,-,N/A,,Scattered Clouds,170,2013-04-05 14:45:00
8:56 AM,41.9,36.9,82,29.80,10.0,South,11.5,-,N/A,,Scattered Clouds,180,2013-04-05 14:56:00
9:18 AM,42.8,37.4,81,29.93,10.0,SSE,15.0,20.7,N/A,,Mostly Cloudy,160,2013-04-05 15:18:00
9:56 AM,41.9,36.9,82,29.80,10.0,South,11.5,-,N/A,,Overcast,170,2013-04-05 15:56:00
10:24 AM,42.8,37.4,81,29.92,10.0,South,18.4,-,N/A,,Scattered Clouds,190,2013-04-05 16:24:00
10:56 AM,43.9,36.9,76,29.79,10.0,SSW,15.0,-,N/A,,Partly Cloudy,210,2013-04-05 16:56:00
11:56 AM,45.0,34.0,65,29.81,10.0,South,13.8,-,N/A,,Overcast,190,2013-04-05 17:56:00
12:56 PM,45.9,32.9,61,29.81,10.0,WSW,13.8,-,0.00,,Mostly Cloudy,240,2013-04-05 18:56:00
1:44 PM,39.2,33.8,81,29.94,10.0,SSW,10.4,-,0.01,Rain,Light Rain,210,2013-04-05 19:44:00
1:56 PM,45.0,34.9,68,29.81,10.0,SW,12.7,-,0.02,Rain,Light Rain,220,2013-04-05 19:56:00
2:39 PM,39.2,33.8,81,29.96,10.0,WNW,10.4,-,0.00,,Overcast,300,2013-04-05 20:39:00
2:56 PM,36.9,34.0,89,29.88,10.0,NW,9.2,-,0.00,Rain,Light Rain,320,2013-04-05 20:56:00
3:08 PM,35.6,33.8,93,29.97,1.5,NW,9.2,-,0.01,Snow,Light Snow,320,2013-04-05 21:08:00
3:11 PM,33.8,32.0,93,29.97,1.0,NNW,8.1,-,0.01,,Overcast,330,2013-04-05 21:11:00
3:20 PM,33.8,33.8,100,29.97,1.2,Variable,3.5,-,0.01,Snow,Light Snow,0,2013-04-05 21:20:00
3:23 PM,33.8,33.8,100,29.97,2.5,NNE,4.6,-,0.01,Snow,Light Snow,20,2013-04-05 21:23:00
3:29 PM,35.6,33.8,93,29.97,10.0,NE,3.5,-,0.03,Snow,Light Snow,50,2013-04-05 21:29:00
3:56 PM,36.9,36.0,97,29.89,10.0,East,8.1,-,0.05,,Overcast,80,2013-04-05 21:56:00
4:34 PM,39.2,37.4,93,29.96,10.0,SSE,8.1,-,0.00,,Scattered Clouds,150,2013-04-05 22:34:00
4:56 PM,41.0,36.9,85,29.87,10.0,SSE,9.2,-,0.00,,Partly Cloudy,150,2013-04-05 22:56:00
5:56 PM,39.9,36.0,86,29.89,10.0,South,15.0,-,N/A,,Mostly Cloudy,170,2013-04-05 23:56:00
6:31 PM,39.2,35.6,87,29.98,6.0,SSE,13.8,-,0.00,Rain,Light Rain,160,2013-04-06 00:31:00
6:56 PM,39.9,36.0,86,29.90,10.0,SSE,13.8,-,0.00,,Overcast,160,2013-04-06 00:56:00
7:56 PM,39.9,34.0,79,29.89,10.0,SE,8.1,-,N/A,,Mostly Cloudy,140,2013-04-06 01:56:00
8:56 PM,41.0,32.0,70,29.88,10.0,SSE,10.4,-,N/A,,Overcast,150,2013-04-06 02:56:00
9:56 PM,41.0,30.0,65,29.91,10.0,South,16.1,-,N/A,,Mostly Cloudy,170,2013-04-06 03:56:00
10:56 PM,39.9,30.0,68,29.91,10.0,SSE,13.8,-,N/A,,Overcast,160,2013-04-06 04:56:00
11:56 PM,39.9,29.1,65,29.89,10.0,South,18.4,-,N/A,,Overcast,190,2013-04-06 05:56:00